Regional Weather Roundup
Issued by NWS

Home | Current Version | Previous Version | Graphics & Text | Print | Product List | Glossary On
Versions: 1 2 3 4 5 6 7 8 9 10 11 12 13 14 15 16 17 18 19 20 21 22 23 24 25 26 27 28 29 30 31 32 33 34 35 36 37 38 39 40 41 42 43 44 45 46 47 48 49 50
447
ASUS43 KMKX 010900
RWRWI

WISCONSIN REGIONAL WEATHER ROUNDUP
NATIONAL WEATHER SERVICE MILWAUKEE/SULLIVAN WI
400 AM CDT SUN MAY 01 2016

NOTE: "FAIR" INDICATES FEW OR NO CLOUDS BELOW 12,000 FEET WITH NO
SIGNIFICANT WEATHER AND/OR OBSTRUCTIONS TO VISIBILITY.

WIZ001-002-006>008-014>016-023>028-011000-
NORTHWEST WISCONSIN

CITY           SKY/WX    TMP DP  RH WIND       PRES   REMARKS
SUPERIOR ARPT  CLOUDY    37  31  76 NE6       30.23S WCI  33
ASHLAND        MOCLDY    38  35  89 NE9       30.21S WCI  31
HAYWARD        PTCLDY    34  31  88 NE7       30.17S WCI  28
SIREN          PTCLDY    38  32  77 NE3       30.18R
CUMBERLAND     CLOUDY    37  32  81 N6        30.13S WCI  33
RICE LAKE      CLOUDY    41  32  71 N9        30.15S
CHETEK         CLOUDY    42  32  69 NE6       30.12S
LADYSMITH      MOCLDY    40  33  76 NE7       30.14S
EAU CLAIRE     CLOUDY    45  30  55 NE10      30.10R
MENOMONIE      CLOUDY    46  31  57 N7        30.11R
NEW RICHMOND   CLOUDY    42  32  68 NE9       30.12S
OSCEOLA        CLOUDY    41  33  72 N6        30.16S
$$

WIZ003>005-009-010-017-018-011000-
NORTH CENTRAL WISCONSIN

CITY           SKY/WX    TMP DP  RH WIND       PRES   REMARKS
MANITOWISH WTR MOCLDY    35  35  98 N3        30.13S
ARBOR VITAE    PTCLDY    37  34  90 NE5       30.12S WCI  33
WOODRUFF       PTCLDY    37  34  90 NE5       30.12S WCI  33
RHINELANDER    CLOUDY    36  32  85 VRB5      30.12R WCI  32
EAGLE RIVER    CLOUDY    34  33  96 N5        30.12R WCI  30
LAND O LAKES   MOCLDY    36  34  93 N7        30.13S WCI  30
PHILLIPS       PTCLDY    36  33  88 N6        30.12S WCI  31
TOMAHAWK       CLOUDY    37  32  82 CALM      30.11S
MEDFORD        PTCLDY    40  33  76 NE8       30.09R WCI  34
MERRILL        PTCLDY    40  33  74 NE7       30.10S
$$

WIZ029-030-035-036-043>047-011000-
CENTRAL WISCONSIN

CITY           SKY/WX    TMP DP  RH WIND       PRES   REMARKS
WAUSAU         CLOUDY    45  31  58 NE5       30.07R
MOSINEE        CLOUDY    43  32  65 NE9       30.09R
MARSHFIELD     CLOUDY    45  31  58 NE9       30.07R
STEVENS POINT  CLOUDY    42  30  62 NE6       30.08R
WAUPACA        DRIZZLE   45  34  65 N3        30.07S
WAUTOMA        NOT AVBL
WISC RAPIDS    CLOUDY    46  29  51 E10       30.08R
CAMP DOUGLAS   CLOUDY    45  43  93 E9        30.05S
$$

WIZ011>013-019>022-031-037>040-048>050-011000-
NORTHEAST WISCONSIN

CITY           SKY/WX    TMP DP  RH WIND       PRES   REMARKS
ANTIGO         CLOUDY    40  33  77 CALM      30.08S
SHAWANO        CLOUDY    46  34  63 NE8       30.08S
OCONTO         CLOUDY    43  34  71 N3        30.06F
STURGEON BAY   CLOUDY    43  32  65 NE7       30.08S
GREEN BAY      CLOUDY    45  36  70 NE15      30.06R
MANITOWOC      NOT AVBL
APPLETON       DRIZZLE   41  34  75 N9        30.04S
CLINTONVILLE   CLOUDY    43  32  65 N6        30.07S
OSHKOSH        LGT RAIN  44  37  76 N14       30.04R
$$

WIZ032>034-041-042-053>061-011000-
SOUTHWEST WISCONSIN

CITY           SKY/WX    TMP DP  RH WIND       PRES   REMARKS
LA CROSSE      CLOUDY    47  37  68 NE14      30.06R
SPARTA         DRIZZLE   45  37  73 NE10G18   30.07
VIROQUA        CLOUDY    43  37  80 NE17      30.02F
BOSCOBEL       CLOUDY    47  38  71 NE8       30.01S
PRAIRIE DU CHI CLOUDY    45  37  73 N5        30.01S
PLATTEVILLE    CLOUDY    44  43  97 NE15      29.97R
$$

WIZ056-057-062-063-064-067-068-011000-
SOUTH CENTRAL WISCONSIN

CITY           SKY/WX    TMP DP  RH WIND       PRES   REMARKS
REEDSBURG      CLOUDY    44  37  76 NE7       30.02S
BARABOO/DELLS  CLOUDY    43  36  77 NE10G17   30.02S
LONE ROCK      NOT AVBL
MINERAL POINT  LGT RAIN  43  43 100 NE13      29.97S
MADISON        LGT RAIN  43  39  86 NE15      30.00R
MIDDLETON      CLOUDY    44  40  88 NE15      30.00R
WATERTOWN      CLOUDY    42  42 100 NE7       29.99R
MONROE         CLOUDY    43  43 100 NE14      29.95S FOG
JANESVILLE     CLOUDY    45  45 100 NE6       29.96R FOG
$$

WIZ051-052-058>065-066-070>072-011000-
SOUTHEAST WISCONSIN

CITY           SKY/WX    TMP DP  RH WIND       PRES   REMARKS
MILWAUKEE      DRIZZLE   42  40  92 NE14      29.97S FOG
WAUKESHA       DRIZZLE   41  41 100 NE10      29.98S
MILWAUKEE/TIMM CLOUDY    43  39  87 NE14      29.99R FOG
RACINE         LGT RAIN  42  40  92 N15       29.98S FOG
BURLINGTON     CLOUDY    42  42  99 NE8       29.96R FOG
KENOSHA        CLOUDY    43  42  97 NE15      29.95S FOG
FOND DU LAC    LGT RAIN  44  38  79 NE16      30.03R
SHEBOYGAN      CLOUDY    42  37  82 N10       30.02R
WEST BEND      CLOUDY    41  37  87 NE6       30.00S
JUNEAU         CLOUDY    42  38  88 N10       30.01S
$$

LSZ147-162-011000-
LAKE SUPERIOR

STATION/POSITION TIME  TEMP    WIND        PRES    WAVE
                       AIR SEA DIR/SP/G            HT/PER
                 (UTC) (F)     (DEG/KT/KT) (MB)    (FT/S)
W MID LAKE BUOY  0750   39 37   20/ 14/ 16 1023.7F   2/ 3
DEVILS ISLAND    0800   39      30/ 12/ 13 1024.3R
PORT WING        0800   36     170/  2/  3 1023.7S
SAXON HARBOR     0840   37      70/  1/  3 1022.0F
$$

LMZ867-665-643>646-011000-
LAKE MICHIGAN

STATION/POSITION TIME  TEMP    WIND        PRES    WAVE
                       AIR SEA DIR/SP/G            HT/PER
                 (UTC) (F)     (DEG/KT/KT) (MB)    (FT/S)
CHAMBERS ISLAND  0800   41      10/ 12/ 16 1018.3F
N MID LAKE BUOY  0750   40 39   10/ 10/ 12 1018.6R   2/ 4
NORTHPORT PIER   0800   41     350/  8/  9 1018.6S
ALGOMA LAKESHORE 0800           60/ 17/ 23   N/A
KEWAUNEE LAKESHO 0800   42      20/ 10/ 14 1016.8F
SHEBOYGAN LAKESH 0800   41      10/ 17/ 19 1017.2R
PORT WASHINGTON  0840   44      30/  9/ 16 1016.9R
S MID LAKE BUOY  0750   42 40   40/ 14/ 16 1013.5R   2/ 4
KENOSHA   LAKESH 0800   43      30/ 18/ 21 1014.2S
$$

TC  - TEMPERATURE IN CELSIUS
VSB - VISIBILITY IN STATUTE MILES
WCI - WIND CHILL INDEX
HX  - HEAT INDEX





USA.gov is the U.S. government's official web portal to all federal, state and local government web resources and services.